Location: Campillo
(40.8621°N, 4.2488°W)
Time: 13:04:05
(UTC+00:00)

SJ-6B - Pass Details

Date: 25 September 2021
Orbit: 508 x 581 km, 97.6° (Epoch: 26 October)

Event Time Altitude Azimuth Distance (km) Brightness Sun altitude
Exits shadow 19:47:53 48° 92° (E) 765 3.1 -19.3°
Maximum altitude 19:48:14 49° 74° (ENE) 750 3.1 -19.4°
Drops below altitude 10° 19:52:12 10° 359° (N) 1,893 5.8 -20.1°
Sets 19:54:23 0° 354° (N) 2,788 6.7 -20.5°
